Flag for U.S.A. Weather past 2 weeks in Narragansett, Rhode Island, U.S.A.

Now
55 °F

Light rain. Fog.


Feels Like: 50 °F
Forecast: 54 / 56 °F
Wind: 20 mph from North

Location: Newport State Airport

Current Time: Oct 22, 2014 at 7:56:04 PM

Latest Report: Oct 22, 2014 at 6:53 PM


Visibility: 4 mi

Pressure: 29.72 "Hg

Humidity: 87%

Dew point: 51 °F

Location of NarragansettLocation

Historic Weather in Narragansett — Graph

°F

Narragansett temperature yesterday

Maximum temperature yesterday: 64 °F (at 1:53 PM)
Minimum temperature yesterday: 55 °F (at 4:53 AM)
Average temperature yesterday: 60 °F

Past Weeks' High & Low Weather Summary

 TemperatureHumidityPressure
High75 °F (Oct 15, 12:53 PM)94% (Oct 7, 9:53 PM)30.36 "Hg (Oct 7, 9:53 PM)
Low39 °F (Oct 20, 5:53 AM)35% (Oct 9, 12:53 PM)29.51 "Hg (Oct 18, 3:53 PM)
Average59 °F75%29.97 "Hg
* Reported Oct 7 6:53 PM — Oct 22 6:53 PM, Narragansett, Weather by CustomWeather, © 2014

Note: Actual official high and low records may vary slightly from our data, if they occured in-between our weather recording intervals... More about our weather records

Advertising

Narragansett weather history for previous 24 hours

 ConditionsComfort  
Time TempWeatherWind HumidityBarometerVisibility
6:53 PM
Oct 22
55 °FLight rain. Fog.20 mph87%29.72 "Hg4 mi
5:53 PM53 °FLight rain. Fog.25 mph86%29.75 "Hg5 mi
4:53 PM54 °FLight rain. Low clouds.21 mph83%29.78 "Hg5 mi
4:03 PM55 °FLight rain. Fog.21 mph87%29.81 "Hg3 mi
3:53 PM55 °FFog.24 mph87%29.81 "Hg2 mi
2:53 PM56 °FLight rain. Fog.18 mph87%29.85 "Hg2 mi
2:02 PM56 °FFog.18 mph87%29.86 "Hg2 mi
12:53 PM57 °FMostly cloudy.20 mph83%29.88 "Hg10 mi
11:53 AM57 °FFog.16 mph87%29.90 "Hg6 mi
10:53 AM58 °FFog.15 mph87%29.91 "Hg3 mi
9:53 AM59 °FOvercast.17 mph84%29.90 "Hg10 mi
8:53 AM57 °FLow clouds.10 mph87%29.94 "Hg10 mi
7:53 AM54 °FLow clouds.14 mph90%29.92 "Hg9 mi
6:53 AM54 °FLow clouds.12 mph90%29.92 "Hg10 mi
5:53 AM54 °FFog.13 mph90%29.94 "Hg4 mi
4:53 AM55 °FLow clouds.15 mph87%29.92 "Hg10 mi
3:53 AM55 °FLow clouds.14 mph90%29.91 "Hg7 mi
2:53 AM57 °FLow clouds.13 mph90%29.92 "Hg7 mi
1:53 AM58 °FFog.12 mph90%29.93 "Hg2 mi
12:53 AM58 °FFog.7 mph90%29.93 "Hg6 mi
12:04 AM58 °FFog.9 mph90%29.94 "Hg4 mi
11:53 PM
Oct 21
58 °FFog.9 mph90%29.94 "Hg2 mi
11:02 PM58 °FFog.7 mph90%29.94 "Hg1 mi
10:53 PM58 °FFog.10 mph90%29.94 "Hg2 mi
9:53 PM60 °FLow clouds.7 mph86%29.93 "Hg10 mi
8:53 PM59 °FMostly cloudy.7 mph90%29.91 "Hg7 mi
7:53 PM60 °FOvercast.3 mph90%29.89 "Hg10 mi
Weather by CustomWeather, © 2014

See weather overviewHow to use our weather pages